Regional Weather Roundup
Issued by NWS

Home | Current Version | Previous Version | Text Only | Print | Product List | Glossary On
Versions: 1 2 3 4 5 6 7 8 9 10 11 12 13 14 15 16 17 18 19 20 21 22 23 24 25 26 27 28 29 30 31 32 33 34 35 36 37 38 39 40 41 42 43 44 45 46 47 48 49 50
000
ASUS43 KLSX 032310
RWRMO

WEATHER SUMMARY FOR MISSOURI
NATIONAL WEATHER SERVICE SPRINGFIELD MO
600 PM CDT THU SEP 03 2015

NOTE: "FAIR" INDICATES FEW OR NO CLOUDS BELOW 12,000 FEET WITH NO
       SIGNIFICANT WEATHER AND/OR OBSTRUCTIONS TO VISIBILITY.
       CURRENT SKY AND/OR WEATHER CONDITIONS ARE NOT AVAILABLE FOR
       CHILLICOTHE AND FARMINGTON.

MOZ001>031-035>038-043-044-053-054-040000-
...NORTHERN AND WESTERN MISSOURI...

CITY           SKY/WX    TMP DP  RH WIND       PRES   REMARKS
KANSAS CTY INT MOSUNNY   89  67  47 S13       29.88F HX  92
KANSAS C DTWN  SUNNY     91  66  43 S13G21    29.87S HX  93
LEE`S SUMMIT   SUNNY     88  66  48 S10       29.90S HX  90
ST JOSEPH      SUNNY     88  70  55 S13       29.85F HX  93
CHILLICOTHE      N/A     91  68  46 S12       29.89F HX  95
KIRKSVILLE     SUNNY     89  68  49 S6        29.91S HX  93

$$
MOZ066>068-077>081-088>096-101>105-040000-
...SOUTHWEST MISSOURI...

CITY           SKY/WX    TMP DP  RH WIND       PRES   REMARKS
SPRINGFIELD    SUNNY     87  66  49 SW9       29.94F
JOPLIN         SUNNY     87  68  52 S8        29.93S HX  90

$$
MOZ032>034-039>042-045>050-055>058-069>072-040000-
...CENTRAL MISSOURI...

CITY           SKY/WX    TMP DP  RH WIND       PRES   REMARKS
COLUMBIA       SUNNY     88  66  48 SW7       29.93S HX  90
JEFFERSON CITY SUNNY     92  65  40 S5        29.90S HX  94
ROLLA          SUNNY     87  66  49 S7        29.94S
SEDALIA        SUNNY     91  65  41 SW7       29.92F HX  93
WHITEMAN AFB   MOSUNNY   91  67  45 SW13      29.89F HX  93
OSAGE BEACH    SUNNY     90  66  45 S3        29.93S HX  92

$$
MOZ051-052-059>065-040000-
...EAST CENTRAL MISSOURI...

CITY           SKY/WX    TMP DP  RH WIND       PRES   REMARKS
ST LOUIS INTL  MOSUNNY   92  65  40 S7        29.92F HX  94
SPIRIT OF STL  MOSUNNY   90  70  51 S3        29.91F HX  95
ST CHARLES     MOSUNNY   91  69  48 SW6       29.90F HX  96

$$
MOZ072>076-082>087-097>100-106>115-040000-
...SOUTH CENTRAL AND SOUTHEAST MISSOURI...

CITY           SKY/WX    TMP DP  RH WIND       PRES   REMARKS
CAPE GIRARDEAU SUNNY     90  69  50 CALM      29.92F HX  94
FARMINGTON     MOSUNNY   88  70  55 S5        29.97S HX  92
POPLAR BLUFF   SUNNY     88  70  55 S3        29.92F HX  93
WEST PLAINS    MOSUNNY   86  65  49 SW5       29.98S

$$



USA.gov is the U.S. government's official web portal to all federal, state and local government web resources and services.